DELTA 4 R/B, 38071

Orbit data source: Space-Track

DELTA 4 R/B, 38071 is space debris in HEO originally from a launch on Fri, 20 Jan 2012 UTC launched from the Air Force Eastern Test Range (AFETR). Debris objects in space refer to the collection of defunct objects orbiting the Earth. Examples of debris include non-operational satellites, rocket bodies, and fragments generated from explosions, collisions, or faulty payload assembly.

Loading next visibility...
Identifier
38071, 2012-003B
Orbit
HEO
Country
Flag of USUS
Related business
Flag of USUnited Launch Alliance/Lockheed Martin (US)
Manufacturer
ULA Decatur
Mission
Spacecraft
Bus & Motor
DCSS-5, RL10B-2
Mass
3,450 kg wet, 3,450 kg dry
Launch date (UTC)
2012-01-20 (14 years ago)
Launch vehicle
Unknown
Launch site
Air Force Eastern Test Range (AFETR)
Object type
Payload
Rocket body
Debris
Shape & HBR
Cyl + 1 Nozzle, 6.8 m
Radar Cross Section
64.942 m², Large (>1 m²)

Expand to show TLE details & history
Last TLE update: 2 days ago

TLE from 2 days ago
0 DELTA 4 R/B
1 38071U 12003B   26173.87595123  .00001454  00000-0  38873-2 0  9999
2 38071  21.4302  94.6825 8240070 338.2812   1.3008  1.17618542 61032
Epoch: 2026-06-22T21:01Z
TLE epoch observation values (Epoch: 2026-06-22T21:01:22.186Z)
Latitude
-0.00484°
Longitude
-131.84947°
Altitude
467.096 km
Speed
10.292 km/s
True Right ascension
06h 18m 11s
True Declination
0° 00' 17"
Sunlit
Object was in daylight at epoch
Visualization orbit readout
Latitude
Unknown
Longitude
Unknown
Altitude
Unknown
Speed
Unknown
Apparent Right ascension
Unknown
Apparent Declination
Unknown
Sunlit
N/A
Visualization observer readout
Local Sidereal Time
17:03:04
Azimuth
Unknown
Elevation
Unknown
Doppler factor
Unknown
Orbital elements
Apogee altitude
62,778.936 km
Perigee altitude
294.623 km
Semi-major axis
37,914.917 km
Eccentricity
0.82401
Inclination
21.4302°
RAAN
94.6825°
Arg. of periapsis
338.2812°
True anomaly
23.20669°
Mean anomaly
1.3008°
Eccentric anomaly
7.29885°
Mean motion
0.29399 °/min
Orbital period
1,224.54 mins
BSTAR
0.0038873
Loading maneuver chart data...
Computing Atmospheric mass density...
Loading historical data...
Loading historical data...
Loading historical data...
Loading historical data...
Loading historical data...
Loading historical data...
Loading historical data...
Other satellites on launch #3 in the year 2012 (2012-01-20 UTC)

Documentation

Showing up to 5 results
|